Weather History for Spencer, IA

Change the Weather History Date:

Saturday, March 24, 2012

  Actual Average Record
Temperature  
Mean Temperature 58 °F -  
Max Temperature 78 °F 46 °F 78 °F (2004)
Min Temperature 39 °F 25 °F 5 °F (1971)
Degree Days  
Heating Degree Days 7    
Growing Degree Days 8 (Base 50)    
Moisture  
Dew Point 43 °F    
Average Humidity 75    
Maximum Humidity 100    
Minimum Humidity 29    
Precipitation  
Precipitation 0.00 in - - ()
Sea Level Pressure  
Sea Level Pressure 29.96 in    
Wind  
Wind Speed 3 mph (NW)    
Max Wind Speed 13 mph    
Max Gust Speed -    
Visibility 6 miles    
Events      
Averages and records for this station are not official NWS values.
T = Trace of Precipitation, MM = Missing Value Source: NWS Daily Summary

Daily Weather History Graph

Daily Weather History Graph

Search for Another Location

Airport:

Trip Planner

Search our weather history database for the weather conditions in past years. The results will help you decide how hot, cold, wet, or windy it might be!

Date:

Astronomy

Mar. 24, 2012 Rise Set
Actual Time 7:15 AM CDT 7:38 PM CDT
Civil Twilight 6:47 AM CDT 8:06 PM CDT
Nautical Twilight 6:14 AM CDT 8:40 PM CDT
Astronomical Twilight 5:39 AM CDT 9:15 PM CDT
Moon 7:51 AM CDT (3/24) 10:04 PM CDT (3/24)
Length of Visible Light 13h 19m
Length of Day
12h 22m
Waxing Crescent, 4% of the Moon is Illuminated
Mar 24
Waxing Crescent
Mar 30
First Quarter
Apr 6
Full
Apr 13
Last Quarter
Apr 21
New

Hourly Weather History & Observations

Time (CDT) Temp. Windchill Dew Point Humidity Pressure Visibility Wind Dir Wind Speed Gust Speed Precip Events Conditions
12:53 AM 45.0 °F - 43.0 °F 93% 29.93 in 6.0 mi Calm Calm - N/A   Clear
1:53 AM 44.1 °F - 42.1 °F 93% 29.93 in 6.0 mi Calm Calm - N/A   Clear
2:53 AM 43.0 °F 41.3 °F 41.0 °F 93% 29.93 in 5.0 mi WNW 3.5 mph - N/A   Clear
3:53 AM 41.0 °F - 39.0 °F 93% 29.92 in 6.0 mi Calm Calm - N/A   Clear
4:27 AM 41.0 °F - 39.2 °F 93% 29.91 in 2.5 mi Calm Calm - N/A   Clear
4:37 AM 41.0 °F 39.0 °F 39.2 °F 93% 29.91 in 3.0 mi WSW 3.5 mph - N/A   Clear
4:44 AM 41.0 °F 38.0 °F 39.2 °F 93% 29.91 in 2.5 mi West 4.6 mph - N/A   Clear
4:53 AM 41.0 °F 37.1 °F 39.0 °F 93% 29.92 in 1.8 mi West 5.8 mph - N/A   Clear
5:03 AM 41.0 °F 38.0 °F 39.2 °F 93% 29.91 in 2.5 mi West 4.6 mph - N/A   Clear
5:12 AM 39.2 °F 35.0 °F 39.2 °F 100% 29.91 in 3.0 mi WNW 5.8 mph - N/A   Clear
5:53 AM 39.9 °F - 37.9 °F 93% 29.94 in 4.0 mi Calm Calm - N/A   Clear
6:53 AM 41.0 °F - 39.0 °F 93% 29.95 in 3.0 mi Calm Calm - N/A   Clear
7:21 AM 39.2 °F 35.9 °F 37.4 °F 93% 29.95 in 1.8 mi WSW 4.6 mph - N/A   Clear
7:35 AM 39.2 °F 35.0 °F 37.4 °F 93% 29.95 in 2.0 mi West 5.8 mph - N/A   Clear
7:45 AM 39.2 °F 34.2 °F 39.2 °F 100% 29.96 in 1.8 mi West 6.9 mph - N/A   Clear
7:53 AM 41.0 °F 37.1 °F 39.0 °F 93% 29.97 in 2.0 mi West 5.8 mph - N/A   Clear
8:07 AM 44.6 °F 40.7 °F 42.8 °F 93% 29.96 in 3.0 mi WNW 6.9 mph - N/A   Clear
8:53 AM 50.0 °F - 46.0 °F 86% 29.99 in 6.0 mi Calm Calm - N/A   Clear
9:53 AM 59.0 °F - 50.0 °F 72% 29.99 in 10.0 mi North 3.5 mph - N/A   Clear
10:53 AM 64.0 °F - 51.1 °F 63% 29.99 in 10.0 mi Variable 3.5 mph - N/A   Clear
11:53 AM 69.1 °F - 46.9 °F 45% 29.97 in 10.0 mi North 4.6 mph - N/A   Clear
12:53 PM 72.0 °F - 45.0 °F 38% 29.96 in 10.0 mi Calm Calm - N/A   Clear
1:53 PM 73.0 °F - 44.1 °F 35% 29.96 in 10.0 mi NNW 5.8 mph - N/A   Clear
2:53 PM 75.0 °F - 44.1 °F 33% 29.95 in 10.0 mi North 6.9 mph - N/A   Clear
3:53 PM 75.9 °F - 43.0 °F 31% 29.96 in 10.0 mi Variable 3.5 mph - N/A   Clear
4:53 PM 77.0 °F - 42.1 °F 29% 29.96 in 10.0 mi North 3.5 mph - N/A   Clear
5:53 PM 77.0 °F - 42.1 °F 29% 29.96 in 10.0 mi Variable 3.5 mph - N/A   Clear
6:53 PM 73.0 °F - 46.9 °F 39% 29.97 in 10.0 mi North 5.8 mph - N/A   Clear
7:53 PM 66.0 °F - 48.0 °F 52% 29.99 in 10.0 mi Calm Calm - N/A   Clear
9:53 PM 57.9 °F - 54.0 °F 87% 30.03 in 10.0 mi ENE 6.9 mph - N/A   Clear
10:53 PM 57.9 °F - 54.0 °F 87% 30.06 in 9.0 mi North 10.4 mph - N/A   Clear
11:53 PM 54.0 °F - 50.0 °F 86% 30.07 in 8.0 mi North 12.7 mph - N/A   Clear